User: anonymous   Login
Location: Forst
(46.9333°N, 15.4333°E)
Time: 02:31:50
(UTC+00:00)
Language:

Lacrosse 5 rocket - Orbit

View from above orbital plane
View from above orbital plane
View from above satellite
View from above satellite

Ground track
Ground track

The orbit data is extracted from the following two-line orbital elements,

1 28647U 05016B   21337.39621110  .00001332  00000-0  92222-4 0  9998
2 28647  56.9962 228.0314 0125704  29.3758 331.4270 15.06758358140417
Epoch (UTC): 03 December 2021 09:30:32
Eccentricity: 0.0125704
inclination: 56.9962°
perigee height: 459 km
apogee height: 633 km
right ascension of ascending node: 228.0314°
argument of perigee: 29.3758°
revolutions per day: 15.06758358
mean anomaly at epoch: 331.4270°
orbit number at epoch: 14041

The dashed part of the orbit path shows where the satellite is in the earth's shadow,  

DLR